Total_Precipitation_Accumulation
1.55 1.69 1.91 2.10 2.57 3.00 3.43 3.59 3.55 2.89 2.27 2.00 1.77 1.66 1.50 1.37 1.38 1.34 1.25 1.18 1.08 1.06 1.20 1.10 1.02 1.02 1.04 1.01 1.15 1.27 1.28 1.06 1.26 1.41 0.94 0.65 0.51 0.44 0.34 0.32 0.36 0.39 0.47
1.62 1.96 2.40 2.54 2.37 2.60 3.05 3.07 2.63 2.09 1.67 1.46 1.32 1.21 1.16 1.05 0.97 0.90 0.87 0.83 0.83 0.88 0.96 0.94 0.85 0.81 0.84 0.83 0.90 1.04 1.04 0.92 1.19 1.33 1.20 0.85 0.63 0.50 0.35 0.35 0.36 0.40 0.51
1.49 1.86 2.26 2.45 2.23 2.29 2.23 1.86 1.55 1.28 1.02 0.88 0.83 0.84 0.81 0.71 0.61 0.54 0.52 0.55 0.59 0.60 0.60 0.61 0.65 0.70 0.70 0.72 0.78 0.94 1.05 0.93 0.96 1.19 1.31 1.05 0.74 0.65 0.50 0.49 0.53 0.57 0.64
0.95 1.22 1.43 1.72 1.81 1.61 1.39 1.17 1.02 0.88 0.77 0.75 0.70 0.74 0.63 0.54 0.48 0.40 0.40 0.42 0.44 0.43 0.42 0.44 0.55 0.61 0.67 0.71 0.66 0.71 0.87 0.93 0.85 0.95 1.06 1.08 1.08 1.02 0.74 0.56 0.53 0.60 0.63
0.57 0.71 0.80 0.93 1.04 0.98 0.88 0.75 0.80 0.85 0.77 0.71 0.65 0.62 0.51 0.42 0.36 0.37 0.41 0.44 0.44 0.42 0.39 0.38 0.40 0.50 0.58 0.64 0.66 0.69 0.74 0.81 0.79 0.81 0.86 0.93 1.03 1.03 0.94 0.69 0.54 0.55 0.54
0.40 0.49 0.49 0.49 0.50 0.51 0.52 0.51 0.58 0.67 0.62 0.59 0.56 0.53 0.48 0.43 0.38 0.35 0.36 0.35 0.38 0.39 0.39 0.38 0.41 0.43 0.44 0.47 0.55 0.61 0.66 0.72 0.74 0.74 0.81 0.89 0.88 0.88 0.99 0.86 0.70 0.64 0.58
0.28 0.33 0.34 0.32 0.30 0.31 0.30 0.31 0.34 0.42 0.45 0.48 0.50 0.46 0.44 0.40 0.36 0.31 0.28 0.28 0.28 0.32 0.36 0.38 0.43 0.48 0.49 0.49 0.51 0.57 0.64 0.70 0.76 0.75 0.78 0.86 0.90 0.90 0.99 0.96 0.79 0.73 0.77
0.20 0.19 0.20 0.21 0.19 0.17 0.17 0.20 0.19 0.19 0.23 0.32 0.36 0.31 0.31 0.28 0.28 0.35 0.32 0.26 0.25 0.28 0.34 0.39 0.43 0.46 0.52 0.54 0.62 0.65 0.70 0.75 0.78 0.76 0.87 0.92 0.89 0.98 1.04 1.10 1.12 1.00 0.99
0.11 0.10 0.10 0.11 0.12 0.11 0.10 0.13 0.16 0.18 0.17 0.15 0.17 0.18 0.20 0.22 0.28 0.33 0.30 0.25 0.25 0.23 0.25 0.32 0.43 0.45 0.48 0.55 0.65 0.69 0.74 0.80 0.85 0.88 0.98 1.05 1.03 1.03 1.03 1.16 1.26 1.30 1.25
0.05 0.05 0.05 0.07 0.09 0.08 0.08 0.10 0.13 0.13 0.12 0.10 0.09 0.09 0.15 0.22 0.30 0.33 0.27 0.24 0.21 0.20 0.21 0.25 0.33 0.36 0.40 0.49 0.62 0.70 0.77 0.89 0.97 0.96 0.99 1.08 1.11 1.16 1.16 1.17 1.25 1.38 1.46
0.03 0.03 0.03 0.05 0.08 0.10 0.09 0.08 0.10 0.11 0.09 0.08 0.07 0.11 0.20 0.23 0.30 0.44 0.41 0.26 0.20 0.18 0.17 0.18 0.20 0.21 0.24 0.33 0.50 0.70 0.82 0.93 0.98 1.01 1.06 1.09 1.17 1.20 1.12 1.17 1.23 1.33 1.46
0.03 0.04 0.03 0.04 0.06 0.10 0.09 0.07 0.08 0.10 0.11 0.10 0.09 0.11 0.18 0.23 0.26 0.32 0.35 0.28 0.22 0.19 0.17 0.16 0.15 0.13 0.16 0.25 0.42 0.59 0.75 0.90 1.02 1.05 1.06 0.97 0.98 1.09 1.13 1.16 1.20 1.24 1.37
0.04 0.04 0.05 0.09 0.07 0.06 0.08 0.08 0.08 0.10 0.11 0.16 0.19 0.16 0.13 0.12 0.13 0.16 0.19 0.23 0.25 0.26 0.23 0.20 0.19 0.23 0.28 0.36 0.46 0.52 0.65 0.80 0.90 0.93 0.91 0.88 0.92 0.93 1.03 1.09 1.11 1.13 1.13
0.03 0.04 0.05 0.07 0.13 0.10 0.09 0.09 0.11 0.13 0.18 0.19 0.19 0.18 0.16 0.15 0.16 0.17 0.19 0.23 0.26 0.27 0.26 0.25 0.29 0.35 0.41 0.44 0.44 0.47 0.55 0.61 0.67 0.73 0.71 0.70 0.76 0.82 0.88 0.91 0.94 0.99 1.05
0.05 0.04 0.04 0.07 0.14 0.19 0.15 0.12 0.14 0.17 0.23 0.29 0.29 0.23 0.18 0.17 0.18 0.19 0.20 0.22 0.23 0.22 0.27 0.31 0.34 0.39 0.42 0.40 0.43 0.47 0.43 0.48 0.48 0.46 0.50 0.52 0.55 0.62 0.72 0.73 0.78 0.87 0.93
0.08 0.07 0.07 0.08 0.09 0.14 0.16 0.16 0.16 0.16 0.20 0.28 0.35 0.37 0.32 0.27 0.24 0.26 0.25 0.26 0.26 0.27 0.31 0.34 0.37 0.38 0.35 0.33 0.33 0.33 0.31 0.34 0.38 0.39 0.37 0.36 0.41 0.46 0.52 0.57 0.63 0.72 0.80
0.08 0.08 0.08 0.09 0.08 0.10 0.12 0.13 0.12 0.16 0.28 0.33 0.33 0.42 0.49 0.43 0.43 0.44 0.39 0.37 0.35 0.36 0.39 0.41 0.42 0.44 0.46 0.33 0.25 0.20 0.23 0.28 0.34 0.39 0.42 0.30 0.24 0.33 0.43 0.50 0.51 0.54 0.60
0.10 0.10 0.08 0.07 0.07 0.07 0.08 0.10 0.13 0.17 0.29 0.34 0.32 0.42 0.51 0.47 0.47 0.48 0.46 0.50 0.55 0.57 0.58 0.57 0.55 0.57 0.53 0.38 0.26 0.19 0.18 0.24 0.30 0.36 0.40 0.39 0.33 0.34 0.39 0.50 0.53 0.51 0.48
0.08 0.07 0.08 0.09 0.09 0.10 0.11 0.12 0.20 0.27 0.34 0.41 0.45 0.52 0.61 0.63 0.64 0.61 0.62 0.68 0.75 0.78 0.81 0.84 0.81 0.75 0.68 0.50 0.32 0.26 0.27 0.34 0.38 0.40 0.40 0.41 0.37 0.30 0.27 0.38 0.47 0.51 0.51
0.09 0.10 0.11 0.11 0.12 0.14 0.17 0.22 0.30 0.40 0.48 0.51 0.54 0.63 0.77 0.85 0.85 0.83 0.85 0.88 0.95 0.98 0.96 0.88 0.80 0.76 0.76 0.63 0.40 0.34 0.38 0.46 0.49 0.55 0.53 0.44 0.40 0.33 0.26 0.35 0.45 0.48 0.50
0.10 0.14 0.17 0.20 0.22 0.25 0.31 0.37 0.43 0.48 0.48 0.50 0.55 0.63 0.83 1.04 1.04 1.06 1.07 1.06 1.06 1.10 1.11 1.06 1.00 0.97 0.93 0.80 0.50 0.39 0.45 0.52 0.58 0.56 0.57 0.54 0.45 0.34 0.26 0.27 0.37 0.39 0.45
0.11 0.14 0.18 0.21 0.28 0.35 0.43 0.51 0.51 0.52 0.56 0.60 0.65 0.73 0.90 0.98 1.04 1.16 1.19 1.21 1.19 1.17 1.18 1.23 1.17 1.14 1.10 0.91 0.67 0.47 0.48 0.59 0.73 0.72 0.69 0.68 0.56 0.42 0.33 0.26 0.24 0.27 0.33
0.12 0.14 0.17 0.22 0.28 0.38 0.52 0.66 0.68 0.68 0.67 0.68 0.72 0.82 0.92 1.01 1.12 1.18 1.14 1.17 1.24 1.26 1.28 1.28 1.23 1.21 1.26 1.12 0.77 0.62 0.57 0.63 0.78 0.89 0.90 0.78 0.62 0.52 0.42 0.36 0.31 0.29 0.31
0.14 0.16 0.18 0.25 0.31 0.37 0.51 0.62 0.67 0.70 0.68 0.65 0.65 0.74 0.90 0.95 1.03 1.15 1.16 1.23 1.28 1.31 1.37 1.38 1.29 1.28 1.38 1.34 1.05 0.81 0.70 0.65 0.71 0.80 0.84 0.79 0.74 0.66 0.57 0.47 0.39 0.33 0.34
0.12 0.15 0.20 0.28 0.32 0.41 0.55 0.65 0.71 0.75 0.76 0.73 0.68 0.70 0.78 0.88 0.94 1.06 1.16 1.18 1.19 1.15 1.17 1.22 1.19 1.20 1.31 1.25 1.02 0.87 0.80 0.74 0.75 0.81 0.87 0.89 0.90 0.81 0.73 0.65 0.59 0.56 0.55
0.13 0.18 0.24 0.31 0.35 0.41 0.52 0.61 0.75 0.90 0.93 0.87 0.78 0.74 0.74 0.81 0.87 0.96 0.97 0.88 0.86 0.83 0.82 0.85 0.80 0.80 0.96 0.98 0.79 0.66 0.68 0.68 0.66 0.73 0.82 0.89 0.94 0.89 0.82 0.78 0.72 0.72 0.69